Preview of NWS' New Version of Forecast
This preview is not operational and should not be used for support decisions.

Regional Weather Roundup (RWR)

Issued by National Weather Service (NWS)

                            
000
ASUS44 KMEG 202100
RWRTN 
TENNESSEE HOURLY STATE WEATHER ROUNDUP
NATIONAL WEATHER SERVICE MEMPHIS TN
400 PM CDT FRI SEP 20 2019

TNZ002-004-019-021-049-052-054-088>092-202200-
WEST TENNESSEE
  
CITY           SKY/WX    TMP DP  RH WIND       PRES   REMARKS
MEMPHIS INTL   PTSUNNY   88  66  48 SW13      30.12F HX  90           
NWS MEMPHIS      N/A     91 N/A N/A MISG        N/A                   
JACKSON        FAIR      88  64  44 S9        30.15S                  
DYERSBURG      FAIR      88  67  49 S7        30.13S HX  91           
$$

TNZ008-025-027-028-033-062-065-066-202200-
NORTH MIDDLE TENNESSEE
  
CITY           SKY/WX    TMP DP  RH WIND       PRES   REMARKS
NASHVILLE      PTSUNNY   87  57  35 SE10      30.18F                  
CLARKSVILLE    PTSUNNY   88  62  41 SW8       30.15F                  
SMYRNA         FAIR      87  61  41 S3        30.19F                  
CROSSVILLE     FAIR      81  57  43 CALM      30.25F                  
$$

TNZ061-075-076-078-094-096-097-202200-
SOUTH MIDDLE TENNESSEE
  
CITY           SKY/WX    TMP DP  RH WIND       PRES   REMARKS
$$

TNZ017-018-042-046-047-202200-
NORTHEAST TENNESSEE
  
CITY           SKY/WX    TMP DP  RH WIND       PRES   REMARKS
TRI CITIES     FAIR      80  60  50 CALM      30.25S                  
$$

TNZ012-013-036-069-073-074-202200-
CENTRAL EAST TENNESSEE
  
CITY           SKY/WX    TMP DP  RH WIND       PRES   REMARKS
KNOXVILLE      FAIR      84  58  40 N6        30.20F                  
OAK RIDGE      FAIR      85  59  41 SE3       30.22F                  
$$

TNZ083-085-099-202200-
SOUTHEAST TENNESSEE
  
CITY           SKY/WX    TMP DP  RH WIND       PRES   REMARKS
CHATTANOOGA    FAIR      87  56  34 VRB7      30.21F                  
$$

SKY/WX REPORTED AS FAIR MEANS FEW OR NO CLOUDS BELOW
12 THOUSAND FEET.